DB7GV-8 Weather Reports


Display with metric or nautical units.
time (UTC)temp
F
wind
direction
speed
MPH
gust
MPH
rain 1hr
in
rain 24hr
in
rain mn
in
humidity
%
barometer
mb
20260502122808 82 0 0.0 0.0 0.00 0.00 0.00 23 1020.3
20260502121302 82 0 0.0 0.0 0.00 0.00 0.00 23 1020.5
20260502115757 82 0 0.0 0.0 0.00 0.00 0.00 23 1020.8
20260502114252 81 0 0.0 0.0 0.00 0.00 0.00 25 1021.0
20260502112746 82 0 0.0 0.0 0.00 0.00 0.00 26 1021.2
20260502111241 81 0 0.0 0.0 0.00 0.00 0.00 27 1021.4
20260502105736 81 0 0.0 0.0 0.00 0.00 0.00 28 1021.6
20260502104229 81 0 0.0 0.0 0.00 0.00 0.00 28 1021.7
20260502102724 81 0 0.0 0.0 0.00 0.00 0.00 28 1021.9
20260502101219 79 0 0.0 0.0 0.00 0.00 0.00 28 1022.2
20260502091158 77 0 0.0 0.0 0.00 0.00 0.00 29 1022.9
20260502071114 90 0 0.0 0.0 0.00 0.00 0.00 24 1023.7
20260502065608 85 0 0.0 0.0 0.00 0.00 0.00 28 1023.7
20260502064103 65 0 0.0 0.0 0.00 0.00 0.00 43 1023.7
20260502062558 59 0 0.0 0.0 0.00 0.00 0.00 61 1023.9
20260502061052 48 0 0.0 0.0 0.00 0.00 0.00 70 1023.8
20260502055547 47 0 0.0 0.0 0.00 0.00 0.00 71 1023.9
20260502054041 46 0 0.0 0.0 0.00 0.00 0.00 72 1024.0
20260502052536 45 0 0.0 0.0 0.00 0.00 0.00 73 1024.0
20260502051030 44 0 0.0 0.0 0.00 0.00 0.00 74 1024.0
20260502045525 43 0 0.0 0.0 0.00 0.00 0.00 75 1023.9
20260502044020 42 0 0.0 0.0 0.00 0.00 0.00 75 1023.8
20260502042514 42 0 0.0 0.0 0.00 0.00 0.00 75 1023.8
20260502041009 42 0 0.0 0.0 0.00 0.00 0.00 74 1023.8
20260502035503 42 0 0.0 0.0 0.00 0.00 0.00 74 1023.7
20260502033958 42 0 0.0 0.0 0.00 0.00 0.00 74 1023.7
20260502032453 42 0 0.0 0.0 0.00 0.00 0.00 73 1023.7
20260502030948 43 0 0.0 0.0 0.00 0.00 0.00 72 1023.7
20260502025442 43 0 0.0 0.0 0.00 0.00 0.00 72 1023.7
20260502022431 44 0 0.0 0.0 0.00 0.00 0.00 71 1023.7
20260502020926 44 0 0.0 0.0 0.00 0.00 0.00 70 1023.8
20260502015420 44 0 0.0 0.0 0.00 0.00 0.00 69 1023.8
20260502013915 45 0 0.0 0.0 0.00 0.00 0.00 69 1023.8
20260502012410 45 0 0.0 0.0 0.00 0.00 0.00 68 1023.8
20260502010904 45 0 0.0 0.0 0.00 0.00 0.00 68 1023.9
20260502005359 45 0 0.0 0.0 0.00 0.00 0.00 67 1023.8
20260502003853 46 0 0.0 0.0 0.00 0.00 0.00 67 1023.9
20260502002347 46 0 0.0 0.0 0.00 0.00 0.00 67 1024.0
20260502000842 46 0 0.0 0.0 0.00 0.00 0.00 66 1024.0
20260501235337 47 0 0.0 0.0 0.00 0.00 0.00 65 1024.1
20260501233831 47 0 0.0 0.0 0.00 0.00 0.00 65 1024.1
20260501232326 47 0 0.0 0.0 0.00 0.00 0.00 64 1024.0
20260501230821 48 0 0.0 0.0 0.00 0.00 0.00 64 1024.0
20260501225315 48 0 0.0 0.0 0.00 0.00 0.00 63 1024.0
20260501223810 48 0 0.0 0.0 0.00 0.00 0.00 63 1024.0
20260501222306 48 0 0.0 0.0 0.00 0.00 0.00 62 1024.0
20260501220759 49 0 0.0 0.0 0.00 0.00 0.00 60 1023.9
20260501215253 50 0 0.0 0.0 0.00 0.00 0.00 60 1023.9
20260501213748 50 0 0.0 0.0 0.00 0.00 0.00 59 1023.8
20260501212243 50 0 0.0 0.0 0.00 0.00 0.00 59 1023.9
20260501210737 51 0 0.0 0.0 0.00 0.00 0.00 58 1023.9
20260501205232 51 0 0.0 0.0 0.00 0.00 0.00 58 1023.9
20260501203727 52 0 0.0 0.0 0.00 0.00 0.00 56 1023.9
20260501202221 53 0 0.0 0.0 0.00 0.00 0.00 56 1023.9
20260501200716 54 0 0.0 0.0 0.00 0.00 0.00 55 1023.8
20260501195211 54 0 0.0 0.0 0.00 0.00 0.00 54 1023.6
20260501193705 55 0 0.0 0.0 0.00 0.00 0.00 53 1023.4
20260501192200 56 0 0.0 0.0 0.00 0.00 0.00 52 1023.3
20260501190654 57 0 0.0 0.0 0.00 0.00 0.00 50 1023.2
20260501185148 59 0 0.0 0.0 0.00 0.00 0.00 48 1023.1
20260501183643 60 0 0.0 0.0 0.00 0.00 0.00 46 1023.0
20260501182138 62 0 0.0 0.0 0.00 0.00 0.00 44 1022.8
20260501180632 63 0 0.0 0.0 0.00 0.00 0.00 41 1022.7
20260501175127 65 0 0.0 0.0 0.00 0.00 0.00 39 1022.7
20260501173621 67 0 0.0 0.0 0.00 0.00 0.00 37 1022.6
20260501172116 69 0 0.0 0.0 0.00 0.00 0.00 32 1022.5
20260501170611 73 0 0.0 0.0 0.00 0.00 0.00 25 1022.5
20260501165106 75 0 0.0 0.0 0.00 0.00 0.00 23 1022.5
20260501160549 77 0 0.0 0.0 0.00 0.00 0.00 22 1022.7
20260501153539 77 0 0.0 0.0 0.00 0.00 0.00 22 1022.8
20260501152032 78 0 0.0 0.0 0.00 0.00 0.00 23 1022.9
20260501150527 77 0 0.0 0.0 0.00 0.00 0.00 23 1023.0